Location: Alta
(39.2070°N, 120.8111°W)
Time: 20:14:34
(UTC+00:00)

ITAMSAT 1 - Visible Passes

Search period start: 30 May 2024 00:00
Search period end: 09 June 2024 00:00
Orbit: 781 x 796 km, 98.8° (Epoch: 30 May)

Date Brightness Start Highest point End Pass type
(mag) Time Alt. Az. Time Alt. Az. Time Alt. Az.
30 May 8.0 04:47:15 11° S 04:52:14 64° WSW 04:57:24 10° NNW visible
31 May 7.7 04:17:14 10° SSE 04:22:22 67° ENE 04:27:31 10° N visible
31 May 10.1 05:59:42 10° WSW 06:02:14 14° W 06:04:46 10° WNW visible
01 Jun 9.4 05:27:43 10° SSW 05:32:03 27° W 05:36:24 10° NW visible
02 Jun 8.3 04:57:02 10° S 05:02:00 51° W 05:07:04 10° NNW visible
03 Jun 7.6 04:26:55 10° SSE 04:32:06 82° ENE 04:37:18 10° NNW visible
03 Jun 10.3 06:11:02 10° WSW 06:12:06 11° W 06:13:10 10° WNW visible
04 Jun 8.2 03:57:27 10° SE 04:02:18 43° ENE 04:07:10 10° N visible
04 Jun 9.7 05:37:57 10° SW 05:41:52 22° W 05:45:49 10° NW visible
05 Jun 8.7 05:06:55 10° S 05:11:48 41° W 05:16:41 10° NNW visible
06 Jun 7.7 04:36:39 10° SSE 04:41:50 82° WSW 04:47:02 10° NNW visible
07 Jun 7.9 04:06:59 10° SSE 04:11:59 52° ENE 04:17:01 10° N visible
07 Jun 9.9 05:48:18 10° SW 05:51:42 18° W 05:55:07 10° NW visible
08 Jun 9.0 05:16:55 10° SSW 05:21:35 34° W 05:26:15 10° NNW visible
